sat.trackr.live / text

‹ back to catalog

STARLINK-32143

NORAD 60296 · 2024-132U

PAYLOAD ACTIVE UNKNOWN

§ Identity

Operator
Country
US
Launch date
2024-07-28
Launch site
AFETR
Launch vehicle
Mass (kg)
RCS (m²)

Purposes: comms

External: N2YO · Heavens-Above · Gunter

§ Orbital elements

Epoch: 2026-09-21T06:31:05.408832Z

Period
94.01 min
Inclination
53.1602°
Eccentricity
0.0001348
Mean motion
15.31693820 rev/d
Perigee alt
469.8 km
Apogee alt
471.7 km
Semi-major
6,848.9 km
B*
8.8770e-9
RAAN
222.6445°
Arg perigee
85.9026°
Mean anomaly
274.2130°
Rev number
12,152

§ Raw data

STARLINK-321431 60296U 24132U   26264.27159038 -.00000365  00000+0  88770-8 0  99922 60296  53.1602 222.6445 0001348  85.9026 274.2130 15.31693820121521

JSON: /api/v1/satellites/60296 · /tle

For live sub-satellite position, see the globe view (requires WebGL).

§ Visibility from observer

Set your observer location to see the next 7 days of passes ≥ 10°. The values pass through the URL so the page stays shareable.

No JS? Fill the form by hand. The geolocation button needs JavaScript.